| time (UTC) | temp F | wind direction | speed MPH | gust MPH | rain 1hr in | rain 24hr in | rain mn in | humidity % | barometer mb |
| 20260510054132 | 71 | 69 | 0.0 | 3.0 | 0.00 | 0.00 | 0.00 | 91 | 1010.4 |
| 20260510053631 | 71 | 45 | 0.0 | 2.0 | 0.00 | 0.00 | 0.00 | 91 | 1010.4 |
| 20260510053128 | 71 | 120 | 0.0 | 2.0 | 0.00 | 0.00 | 0.00 | 91 | 1010.4 |
| 20260510052623 | 71 | 90 | 0.0 | 2.0 | 0.00 | 0.00 | 0.00 | 91 | 1010.5 |
| 20260510052119 | 72 | 75 | 0.0 | 2.0 | 0.00 | 0.00 | 0.00 | 91 | 1010.5 |
| 20260510051609 | 72 | 105 | 0.0 | 2.0 | 0.00 | 0.00 | 0.00 | 91 | 1010.5 |
| 20260510051107 | 72 | 159 | 0.0 | 4.0 | 0.00 | 0.00 | 0.00 | 91 | 1010.3 |
| 20260510050604 | 71 | 99 | 0.0 | 2.0 | 0.00 | 0.00 | 0.00 | 92 | 1010.3 |
| 20260510050100 | 71 | 355 | 0.0 | 3.0 | 0.00 | 0.00 | 0.00 | 92 | 1010.4 |
| 20260510045558 | 71 | 106 | 3.0 | 6.0 | 0.00 | 0.00 | 0.00 | 94 | 1010.3 |
| 20260510045054 | 71 | 112 | 3.0 | 6.0 | 0.00 | 0.00 | 0.00 | 96 | 1010.3 |
| 20260510044550 | 69 | 106 | 0.0 | 6.0 | 0.00 | 0.00 | 0.00 | 99 | 1010.4 |
| 20260510044048 | 68 | 132 | 2.0 | 3.0 | 0.00 | 0.00 | 0.00 | 99 | 1010.6 |
| 20260510043543 | 69 | 82 | 0.0 | 1.0 | 0.00 | 0.00 | 0.00 | 99 | 1010.4 |
| 20260510043039 | 69 | 0 | 0.0 | 0.0 | 0.00 | 0.00 | 0.00 | 99 | 1010.1 |
| 20260510042533 | 69 | 0 | 0.0 | 1.0 | 0.00 | 0.00 | 0.00 | 99 | 1010.1 |
| 20260510042028 | 69 | 66 | 0.0 | 0.0 | 0.00 | 0.00 | 0.00 | 99 | 1010.4 |
| 20260510041526 | 69 | 69 | 0.0 | 0.0 | 0.00 | 0.00 | 0.00 | 99 | 1010.4 |
| 20260510041023 | 69 | 352 | 0.0 | 2.0 | 0.00 | 0.00 | 0.00 | 99 | 1010.2 |
| 20260510040519 | 69 | 0 | 0.0 | 0.0 | 0.00 | 0.00 | 0.00 | 99 | 1010.3 |
| 20260510040014 | 69 | 66 | 0.0 | 1.0 | 0.00 | 0.00 | 0.00 | 99 | 1010.3 |
| 20260510035512 | 69 | 74 | 0.0 | 0.0 | 0.00 | 0.00 | 0.00 | 99 | 1010.2 |
| 20260510035010 | 69 | 74 | 0.0 | 1.0 | 0.00 | 0.00 | 0.00 | 98 | 1010.0 |
| 20260510034510 | 69 | 90 | 0.0 | 0.0 | 0.00 | 0.00 | 0.00 | 98 | 1009.9 |
| 20260510034006 | 69 | 90 | 0.0 | 0.0 | 0.00 | 0.00 | 0.00 | 98 | 1009.6 |
| 20260510033503 | 69 | 90 | 0.0 | 0.0 | 0.00 | 0.00 | 0.00 | 98 | 1009.6 |
| 20260510033001 | 69 | 90 | 0.0 | 0.0 | 0.00 | 0.00 | 0.00 | 98 | 1009.8 |
| 20260510032457 | 70 | 90 | 0.0 | 0.0 | 0.00 | 0.00 | 0.00 | 98 | 1009.4 |
| 20260510031957 | 70 | 15 | 0.0 | 0.0 | 0.00 | 0.00 | 0.00 | 98 | 1009.3 |
| 20260510031453 | 70 | 15 | 0.0 | 0.0 | 0.00 | 0.00 | 0.00 | 98 | 1009.5 |
| 20260510030949 | 70 | 15 | 0.0 | 0.0 | 0.00 | 0.00 | 0.00 | 97 | 1009.1 |
| 20260510030444 | 70 | 15 | 0.0 | 1.0 | 0.00 | 0.00 | 0.00 | 97 | 1009.4 |
| 20260510025942 | 70 | 90 | 1.0 | 3.0 | 0.00 | 0.00 | 0.00 | 97 | 1009.3 |
| 20260510025439 | 71 | 234 | 1.0 | 2.0 | 0.00 | 0.00 | 0.00 | 96 | 1009.2 |
| 20260510024937 | 71 | 99 | 0.0 | 0.0 | 0.00 | 0.00 | 0.00 | 95 | 1009.1 |
| 20260510024433 | 71 | 99 | 0.0 | 1.0 | 0.00 | 0.00 | 0.00 | 95 | 1009.3 |
| 20260510023929 | 71 | 71 | 1.0 | 2.0 | 0.00 | 0.00 | 0.00 | 94 | 1009.0 |
| 20260510023425 | 71 | 66 | 0.0 | 0.0 | 0.00 | 0.00 | 0.00 | 93 | 1009.0 |
| 20260510022923 | 72 | 66 | 0.0 | 2.0 | 0.00 | 0.00 | 0.00 | 93 | 1009.0 |
| 20260510022421 | 72 | 63 | 0.0 | 2.0 | 0.00 | 0.00 | 0.00 | 93 | 1008.9 |
| 20260510021921 | 72 | 345 | 0.0 | 1.0 | 0.00 | 0.00 | 0.00 | 92 | 1008.9 |
| 20260510021419 | 72 | 7 | 0.0 | 1.0 | 0.00 | 0.00 | 0.00 | 92 | 1008.8 |
| 20260510020915 | 73 | 90 | 0.0 | 0.0 | 0.00 | 0.00 | 0.00 | 91 | 1008.9 |
| 20260510020410 | 73 | 90 | 0.0 | 0.0 | 0.00 | 0.00 | 0.00 | 90 | 1008.7 |
| 20260510015906 | 73 | 66 | 0.0 | 0.0 | 0.00 | 0.00 | 0.00 | 89 | 1008.6 |
| 20260510015402 | 74 | 66 | 0.0 | 0.0 | 0.00 | 0.00 | 0.00 | 89 | 1008.5 |
| 20260510014857 | 74 | 74 | 0.0 | 2.0 | 0.00 | 0.00 | 0.00 | 89 | 1008.4 |
| 20260510014355 | 75 | 286 | 0.0 | 2.0 | 0.00 | 0.00 | 0.00 | 88 | 1008.3 |
| 20260510013851 | 75 | 270 | 0.0 | 0.0 | 0.00 | 0.00 | 0.00 | 86 | 1008.3 |
| 20260510013347 | 76 | 234 | 0.0 | 1.0 | 0.00 | 0.00 | 0.00 | 86 | 1008.0 |
| 20260510012841 | 76 | 206 | 0.0 | 0.0 | 0.00 | 0.00 | 0.00 | 86 | 1008.1 |
| 20260510012336 | 76 | 209 | 0.0 | 3.0 | 0.00 | 0.00 | 0.00 | 86 | 1008.1 |
| 20260510011831 | 77 | 195 | 0.0 | 1.0 | 0.00 | 0.00 | 0.00 | 85 | 1008.3 |
| 20260510011326 | 77 | 29 | 0.0 | 2.0 | 0.00 | 0.00 | 0.00 | 84 | 1008.1 |
| 20260510010823 | 77 | 98 | 0.0 | 1.0 | 0.00 | 0.00 | 0.00 | 85 | 1007.9 |
| 20260510010321 | 78 | 147 | 0.0 | 2.0 | 0.00 | 0.00 | 0.00 | 84 | 1007.8 |
| 20260510005817 | 79 | 90 | 0.0 | 0.0 | 0.00 | 0.00 | 0.00 | 82 | 1007.8 |
| 20260510005313 | 80 | 270 | 0.0 | 0.0 | 0.00 | 0.00 | 0.00 | 79 | 1007.8 |
| 20260510004811 | 81 | 279 | 1.0 | 2.0 | 0.00 | 0.00 | 0.00 | 78 | 1008.0 |
| 20260510004308 | 81 | 249 | 0.0 | 0.0 | 0.00 | 0.00 | 0.00 | 77 | 1007.7 |
| 20260510003806 | 81 | 249 | 0.0 | 1.0 | 0.00 | 0.00 | 0.00 | 76 | 1007.7 |
| 20260510003303 | 81 | 209 | 0.0 | 3.0 | 0.00 | 0.00 | 0.00 | 76 | 1007.7 |
| 20260510002801 | 82 | 225 | 3.0 | 3.0 | 0.00 | 0.00 | 0.00 | 75 | 1007.7 |
| 20260510002259 | 83 | 215 | 3.0 | 5.0 | 0.00 | 0.00 | 0.00 | 73 | 1007.6 |
| 20260510001755 | 84 | 259 | 2.0 | 3.0 | 0.00 | 0.00 | 0.00 | 73 | 1007.7 |
| 20260510001254 | 84 | 156 | 2.0 | 2.0 | 0.00 | 0.00 | 0.00 | 71 | 1007.6 |
| 20260510000749 | 84 | 209 | 1.0 | 3.0 | 0.00 | 0.00 | 0.00 | 71 | 1007.8 |
| 20260510000248 | 84 | 206 | 3.0 | 4.0 | 0.00 | 0.00 | 0.00 | 71 | 1007.6 |
| 20260509235744 | 84 | 161 | 0.0 | 5.0 | 0.00 | 0.00 | 0.00 | 70 | 1007.6 |
| 20260509235240 | 84 | 234 | 1.0 | 6.0 | 0.00 | 0.00 | 0.00 | 71 | 1007.8 |
| 20260509234736 | 84 | 207 | 4.0 | 6.0 | 0.00 | 0.00 | 0.00 | 70 | 1007.8 |
| 20260509234233 | 84 | 212 | 3.0 | 10.0 | 0.00 | 0.00 | 0.00 | 71 | 1007.6 |
| 20260509233731 | 88 | 225 | 3.0 | 7.0 | 0.00 | 0.00 | 0.00 | 72 | 1007.6 |
| 20260509233228 | 88 | 79 | 2.0 | 4.0 | 0.00 | 0.00 | 0.00 | 73 | 1007.5 |
| 20260509232724 | 88 | 180 | 0.0 | 4.0 | 0.00 | 0.00 | 0.00 | 73 | 1007.4 |
| 20260509232222 | 88 | 84 | 2.0 | 3.0 | 0.00 | 0.00 | 0.00 | 75 | 1007.6 |
| 20260509231718 | 88 | 95 | 4.0 | 6.0 | 0.00 | 0.00 | 0.00 | 74 | 1007.7 |
| 20260509231215 | 90 | 103 | 1.0 | 3.0 | 0.00 | 0.00 | 0.00 | 73 | 1007.4 |
| 20260509230713 | 89 | 157 | 0.0 | 4.0 | 0.00 | 0.00 | 0.00 | 74 | 1007.2 |
| 20260509230209 | 89 | 99 | 3.0 | 5.0 | 0.00 | 0.00 | 0.00 | 73 | 1007.2 |
| 20260509225705 | 91 | 95 | 2.0 | 3.0 | 0.00 | 0.00 | 0.00 | 71 | 1007.1 |
| 20260509225201 | 91 | 150 | 0.0 | 2.0 | 0.00 | 0.00 | 0.00 | 70 | 1007.3 |
| 20260509224656 | 89 | 74 | 0.0 | 0.0 | 0.00 | 0.00 | 0.00 | 70 | 1007.1 |
| 20260509224154 | 91 | 62 | 6.0 | 6.0 | 0.00 | 0.00 | 0.00 | 70 | 1006.9 |
| 20260509223650 | 90 | 0 | 2.0 | 4.0 | 0.00 | 0.00 | 0.00 | 71 | 1007.3 |
| 20260509223148 | 90 | 352 | 0.0 | 0.0 | 0.00 | 0.00 | 0.00 | 70 | 1006.9 |
| 20260509222645 | 89 | 68 | 5.0 | 5.0 | 0.00 | 0.00 | 0.00 | 72 | 1007.0 |
| 20260509222140 | 88 | 60 | 1.0 | 4.0 | 0.00 | 0.00 | 0.00 | 75 | 1006.9 |
| 20260509221636 | 87 | 19 | 2.0 | 4.0 | 0.00 | 0.00 | 0.00 | 76 | 1006.7 |
| 20260509221132 | 86 | 7 | 0.0 | 2.0 | 0.00 | 0.00 | 0.00 | 80 | 1006.8 |
| 20260509220628 | 86 | 14 | 0.0 | 2.0 | 0.00 | 0.00 | 0.00 | 81 | 1006.9 |
| 20260509220124 | 86 | 20 | 0.0 | 1.0 | 0.00 | 0.00 | 0.00 | 82 | 1006.8 |
| 20260509215620 | 86 | 8 | 0.0 | 0.0 | 0.00 | 0.00 | 0.00 | 79 | 1006.9 |
| 20260509215117 | 86 | 8 | 0.0 | 0.0 | 0.00 | 0.00 | 0.00 | 82 | 1007.1 |
| 20260509214614 | 86 | 15 | 0.0 | 1.0 | 0.00 | 0.00 | 0.00 | 80 | 1007.2 |
| 20260509214111 | 87 | 352 | 0.0 | 0.0 | 0.00 | 0.00 | 0.00 | 79 | 1007.0 |
| 20260509213607 | 86 | 66 | 0.0 | 2.0 | 0.00 | 0.00 | 0.00 | 79 | 1007.0 |
| 20260509213104 | 87 | 26 | 0.0 | 1.0 | 0.00 | 0.00 | 0.00 | 78 | 1007.2 |
| 20260509212601 | 88 | 8 | 0.0 | 1.0 | 0.00 | 0.00 | 0.00 | 76 | 1007.4 |
| 20260509212058 | 87 | 15 | 0.0 | 1.0 | 0.00 | 0.00 | 0.00 | 74 | 1007.4 |
| 20260509211554 | 87 | 23 | 0.0 | 2.0 | 0.00 | 0.00 | 0.00 | 77 | 1007.2 |
| 20260509211050 | 88 | 37 | 0.0 | 2.0 | 0.00 | 0.00 | 0.00 | 77 | 1007.7 |
| 20260509210548 | 89 | 270 | 0.0 | 1.0 | 0.00 | 0.00 | 0.00 | 73 | 1007.5 |
| 20260509210044 | 89 | 334 | 0.0 | 3.0 | 0.00 | 0.00 | 0.00 | 71 | 1007.7 |
| 20260509205538 | 89 | 37 | 3.0 | 5.0 | 0.00 | 0.00 | 0.00 | 71 | 1007.4 |
| 20260509205034 | 90 | 275 | 2.0 | 6.0 | 0.00 | 0.00 | 0.00 | 74 | 1007.7 |
| 20260509204530 | 90 | 346 | 3.0 | 4.0 | 0.00 | 0.00 | 0.00 | 70 | 1007.4 |
| 20260509204027 | 90 | 14 | 0.0 | 4.0 | 0.00 | 0.00 | 0.00 | 74 | 1007.6 |
| 20260509203522 | 90 | 7 | 1.0 | 2.0 | 0.00 | 0.00 | 0.00 | 74 | 1007.5 |
| 20260509203022 | 88 | 263 | 0.0 | 2.0 | 0.00 | 0.00 | 0.00 | 72 | 1007.6 |
| 20260509202520 | 88 | 243 | 0.0 | 3.0 | 0.00 | 0.00 | 0.00 | 72 | 1008.1 |
| 20260509202017 | 89 | 294 | 1.0 | 4.0 | 0.00 | 0.00 | 0.00 | 75 | 1008.0 |
| 20260509201511 | 89 | 0 | 0.0 | 1.0 | 0.00 | 0.00 | 0.00 | 76 | 1008.0 |
| 20260509201009 | 89 | 14 | 1.0 | 3.0 | 0.00 | 0.00 | 0.00 | 72 | 1008.2 |
| 20260509200504 | 88 | 206 | 0.0 | 2.0 | 0.00 | 0.00 | 0.00 | 74 | 1008.1 |
| 20260509200001 | 90 | 206 | 3.0 | 4.0 | 0.00 | 0.00 | 0.00 | 72 | 1008.3 |
| 20260509195456 | 88 | 228 | 2.0 | 4.0 | 0.00 | 0.00 | 0.00 | 76 | 1008.2 |
| 20260509194956 | 88 | 180 | 0.0 | 4.0 | 0.00 | 0.00 | 0.00 | 74 | 1008.3 |
| 20260509194451 | 89 | 114 | 0.0 | 3.0 | 0.00 | 0.00 | 0.00 | 73 | 1008.4 |
| 20260509193948 | 88 | 20 | 1.0 | 3.0 | 0.00 | 0.00 | 0.00 | 75 | 1008.3 |
| 20260509193443 | 87 | 180 | 0.0 | 1.0 | 0.00 | 0.00 | 0.00 | 78 | 1008.3 |
| 20260509192939 | 86 | 228 | 3.0 | 4.0 | 0.00 | 0.00 | 0.00 | 76 | 1008.3 |
| 20260509192436 | 90 | 206 | 0.0 | 4.0 | 0.00 | 0.00 | 0.00 | 72 | 1008.3 |
| 20260509191931 | 87 | 0 | 0.0 | 0.0 | 0.00 | 0.00 | 0.00 | 74 | 1008.4 |
| 20260509191426 | 86 | 151 | 2.0 | 2.0 | 0.00 | 0.00 | 0.00 | 75 | 1008.6 |
| 20260509190923 | 87 | 243 | 0.0 | 3.0 | 0.00 | 0.00 | 0.00 | 76 | 1008.7 |
| 20260509190420 | 87 | 221 | 5.0 | 7.0 | 0.00 | 0.00 | 0.00 | 77 | 1008.8 |
| 20260509185918 | 88 | 254 | 0.0 | 4.0 | 0.00 | 0.00 | 0.00 | 74 | 1008.7 |
| 20260509185415 | 88 | 8 | 0.0 | 3.0 | 0.00 | 0.00 | 0.00 | 75 | 1008.9 |
| 20260509184911 | 87 | 57 | 3.0 | 4.0 | 0.00 | 0.00 | 0.00 | 74 | 1008.8 |
| 20260509184409 | 87 | 208 | 3.0 | 3.0 | 0.00 | 0.00 | 0.00 | 74 | 1008.8 |
| 20260509183905 | 87 | 299 | 2.0 | 6.0 | 0.00 | 0.00 | 0.00 | 73 | 1009.1 |
| 20260509183359 | 87 | 248 | 3.0 | 5.0 | 0.00 | 0.00 | 0.00 | 75 | 1009.3 |
| 20260509182856 | 89 | 221 | 2.0 | 2.0 | 0.00 | 0.00 | 0.00 | 77 | 1009.3 |
| 20260509182353 | 86 | 110 | 3.0 | 3.0 | 0.00 | 0.00 | 0.00 | 80 | 1009.4 |
| 20260509181851 | 86 | 57 | 3.0 | 5.0 | 0.00 | 0.00 | 0.00 | 80 | 1009.1 |
| 20260509181348 | 85 | 8 | 2.0 | 3.0 | 0.00 | 0.00 | 0.00 | 82 | 1009.7 |
| 20260509180845 | 84 | 327 | 2.0 | 3.0 | 0.00 | 0.00 | 0.00 | 84 | 1009.6 |
| 20260509180340 | 83 | 282 | 0.0 | 3.0 | 0.00 | 0.00 | 0.00 | 85 | 1009.7 |
| 20260509175838 | 83 | 55 | 3.0 | 5.0 | 0.00 | 0.00 | 0.00 | 84 | 1009.9 |
| 20260509175334 | 85 | 350 | 3.0 | 3.0 | 0.00 | 0.00 | 0.00 | 82 | 1009.9 |
| 20260509174830 | 86 | 233 | 2.0 | 5.0 | 0.00 | 0.00 | 0.00 | 82 | 1010.0 |
| 20260509174326 | 85 | 0 | 0.0 | 3.0 | 0.00 | 0.00 | 0.00 | 82 | 1009.9 |
| 20260509173822 | 85 | 81 | 0.0 | 3.0 | 0.00 | 0.00 | 0.00 | 83 | 1010.0 |
| 20260509173318 | 84 | 232 | 2.0 | 4.0 | 0.00 | 0.00 | 0.00 | 83 | 1010.1 |
| 20260509172814 | 83 | 253 | 3.0 | 6.0 | 0.00 | 0.00 | 0.00 | 85 | 1010.1 |
| 20260509172311 | 82 | 243 | 3.0 | 4.0 | 0.00 | 0.00 | 0.00 | 87 | 1010.3 |
| 20260509171806 | 82 | 300 | 0.0 | 3.0 | 0.00 | 0.00 | 0.00 | 87 | 1010.2 |
| 20260509171303 | 81 | 294 | 2.0 | 3.0 | 0.00 | 0.00 | 0.00 | 88 | 1010.2 |
| 20260509170759 | 81 | 202 | 3.0 | 4.0 | 0.00 | 0.00 | 0.00 | 88 | 1010.0 |
| 20260509170255 | 81 | 225 | 2.0 | 3.0 | 0.00 | 0.00 | 0.00 | 88 | 1010.3 |
| 20260509165754 | 81 | 109 | 2.0 | 2.0 | 0.00 | 0.00 | 0.00 | 89 | 1010.1 |
| 20260509165249 | 80 | 160 | 0.0 | 2.0 | 0.00 | 0.00 | 0.00 | 90 | 1010.1 |
| 20260509164746 | 80 | 174 | 1.0 | 4.0 | 0.00 | 0.00 | 0.00 | 91 | 1010.5 |
| 20260509164242 | 80 | 221 | 2.0 | 4.0 | 0.00 | 0.00 | 0.00 | 91 | 1010.4 |
| 20260509163744 | 80 | 220 | 2.0 | 3.0 | 0.00 | 0.00 | 0.00 | 92 | 1010.2 |
| 20260509163235 | 80 | 154 | 3.0 | 3.0 | 0.00 | 0.00 | 0.00 | 91 | 1010.2 |
| 20260509162734 | 80 | 241 | 2.0 | 3.0 | 0.00 | 0.00 | 0.00 | 90 | 1010.3 |
| 20260509162228 | 79 | 157 | 0.0 | 2.0 | 0.00 | 0.00 | 0.00 | 91 | 1010.1 |
| 20260509161724 | 79 | 106 | 0.0 | 1.0 | 0.00 | 0.00 | 0.00 | 91 | 1010.0 |
| 20260509161220 | 79 | 270 | 1.0 | 3.0 | 0.00 | 0.00 | 0.00 | 92 | 1010.0 |
| 20260509160715 | 80 | 243 | 2.0 | 3.0 | 0.00 | 0.00 | 0.00 | 91 | 1010.2 |
| 20260509160212 | 80 | 82 | 1.0 | 2.0 | 0.00 | 0.00 | 0.00 | 91 | 1010.1 |
| 20260509155707 | 80 | 243 | 0.0 | 3.0 | 0.00 | 0.00 | 0.00 | 92 | 1010.2 |
| 20260509155204 | 79 | 212 | 3.0 | 5.0 | 0.00 | 0.00 | 0.00 | 92 | 1010.2 |
| 20260509154700 | 79 | 0 | 0.0 | 2.0 | 0.00 | 0.00 | 0.00 | 91 | 1010.1 |
| 20260509154157 | 79 | 352 | 0.0 | 3.0 | 0.00 | 0.00 | 0.00 | 92 | 1010.3 |
| 20260509153654 | 79 | 96 | 2.0 | 2.0 | 0.00 | 0.00 | 0.00 | 93 | 1010.4 |
| 20260509153151 | 78 | 221 | 4.0 | 4.0 | 0.00 | 0.00 | 0.00 | 92 | 1010.2 |
| 20260509152646 | 78 | 326 | 0.0 | 5.0 | 0.00 | 0.00 | 0.00 | 94 | 1010.2 |
| 20260509152144 | 78 | 312 | 2.0 | 6.0 | 0.00 | 0.00 | 0.00 | 93 | 1009.8 |
| 20260509151640 | 78 | 184 | 2.0 | 6.0 | 0.00 | 0.00 | 0.00 | 95 | 1009.6 |
| 20260509151137 | 77 | 200 | 3.0 | 8.0 | 0.00 | 0.00 | 0.00 | 97 | 1009.5 |
| 20260509150636 | 76 | 221 | 13.0 | 20.0 | 0.00 | 0.00 | 0.00 | 96 | 1009.2 |
| 20260509150133 | 76 | 173 | 6.0 | 18.0 | 0.00 | 0.00 | 0.00 | 97 | 1009.2 |
| 20260509145629 | 76 | 236 | 3.0 | 20.0 | 0.00 | 0.00 | 0.00 | 97 | 1009.0 |
| 20260509145125 | 76 | 212 | 5.0 | 16.0 | 0.00 | 0.00 | 0.00 | 97 | 1009.4 |
| 20260509144621 | 77 | 196 | 2.0 | 9.0 | 0.00 | 0.00 | 0.00 | 96 | 1009.6 |
| 20260509144119 | 76 | 220 | 8.0 | 13.0 | 0.00 | 0.00 | 0.00 | 96 | 1009.3 |
| 20260509143616 | 76 | 212 | 5.0 | 13.0 | 0.00 | 0.00 | 0.00 | 96 | 1009.3 |
| 20260509143114 | 76 | 214 | 5.0 | 12.0 | 0.00 | 0.00 | 0.00 | 97 | 1009.4 |
| 20260509142608 | 76 | 223 | 6.0 | 12.0 | 0.00 | 0.00 | 0.00 | 97 | 1009.4 |
| 20260509142105 | 76 | 164 | 3.0 | 6.0 | 0.00 | 0.00 | 0.00 | 97 | 1009.4 |
| 20260509141601 | 76 | 231 | 3.0 | 8.0 | 0.00 | 0.00 | 0.00 | 99 | 1009.6 |
| 20260509141058 | 75 | 235 | 8.0 | 8.0 | 0.00 | 0.00 | 0.00 | 99 | 1009.7 |
| 20260509140555 | 75 | 176 | 2.0 | 8.0 | 0.00 | 0.00 | 0.00 | 99 | 1009.7 |
| 20260509140053 | 75 | 166 | 4.0 | 9.0 | 0.00 | 0.00 | 0.00 | 99 | 1009.8 |
| 20260509135550 | 75 | 228 | 5.0 | 6.0 | 0.00 | 0.00 | 0.00 | 99 | 1009.7 |
| 20260509135047 | 74 | 240 | 3.0 | 6.0 | 0.00 | 0.00 | 0.00 | 99 | 1009.9 |
| 20260509134544 | 74 | 237 | 4.0 | 5.0 | 0.00 | 0.00 | 0.00 | 99 | 1009.7 |
| 20260509134042 | 74 | 233 | 4.0 | 5.0 | 0.00 | 0.00 | 0.00 | 99 | 1009.7 |
| 20260509133538 | 74 | 229 | 3.0 | 5.0 | 0.00 | 0.00 | 0.00 | 99 | 1009.8 |
| 20260509133036 | 73 | 225 | 2.0 | 5.0 | 0.00 | 0.00 | 0.00 | 99 | 1009.8 |
| 20260509132534 | 73 | 135 | 2.0 | 5.0 | 0.00 | 0.00 | 0.00 | 99 | 1010.0 |
| 20260509132032 | 73 | 148 | 2.0 | 5.0 | 0.00 | 0.00 | 0.00 | 99 | 1009.9 |
| 20260509131528 | 73 | 206 | 3.0 | 5.0 | 0.00 | 0.00 | 0.00 | 99 | 1010.0 |
| 20260509131025 | 73 | 228 | 4.0 | 4.0 | 0.00 | 0.00 | 0.00 | 99 | 1009.6 |
| 20260509130520 | 73 | 120 | 0.0 | 1.0 | 0.00 | 0.00 | 0.00 | 99 | 1009.8 |
| 20260509130018 | 73 | 117 | 3.0 | 3.0 | 0.00 | 0.00 | 0.00 | 99 | 1009.4 |
| 20260509125514 | 73 | 149 | 4.0 | 6.0 | 0.00 | 0.00 | 0.00 | 99 | 1009.5 |
| 20260509125010 | 73 | 120 | 2.0 | 3.0 | 0.00 | 0.00 | 0.00 | 99 | 1009.4 |
| 20260509124507 | 73 | 140 | 0.0 | 2.0 | 0.00 | 0.00 | 0.00 | 99 | 1009.4 |
| 20260509124004 | 73 | 251 | 1.0 | 5.0 | 0.00 | 0.00 | 0.00 | 99 | 1009.4 |
| 20260509123502 | 73 | 254 | 0.0 | 2.0 | 0.00 | 0.00 | 0.00 | 99 | 1009.5 |
| 20260509122957 | 73 | 145 | 0.0 | 2.0 | 0.00 | 0.00 | 0.00 | 99 | 1009.3 |
| 20260509122455 | 72 | 103 | 1.0 | 2.0 | 0.00 | 0.00 | 0.00 | 99 | 1009.6 |
| 20260509121951 | 72 | 74 | 0.0 | 1.0 | 0.00 | 0.00 | 0.00 | 99 | 1009.7 |
| 20260509121448 | 72 | 66 | 2.0 | 2.0 | 0.00 | 0.00 | 0.00 | 99 | 1009.5 |
| 20260509120946 | 72 | 54 | 0.0 | 2.0 | 0.00 | 0.00 | 0.00 | 99 | 1009.7 |
| 20260509120444 | 72 | 6 | 1.0 | 2.0 | 0.00 | 0.00 | 0.00 | 99 | 1009.7 |
| 20260509115942 | 72 | 56 | 2.0 | 2.0 | 0.00 | 0.00 | 0.00 | 99 | 1009.2 |
| 20260509115439 | 72 | 229 | 0.0 | 0.0 | 0.00 | 0.00 | 0.00 | 99 | 1009.4 |
| 20260509114936 | 72 | 194 | 1.0 | 2.0 | 0.00 | 0.00 | 0.00 | 99 | 1009.5 |
| 20260509114435 | 72 | 337 | 0.0 | 3.0 | 0.00 | 0.00 | 0.00 | 99 | 1009.5 |
| 20260509113934 | 72 | 248 | 2.0 | 3.0 | 0.00 | 0.00 | 0.00 | 99 | 1009.6 |
| 20260509113431 | 72 | 206 | 1.0 | 2.0 | 0.00 | 0.00 | 0.00 | 99 | 1009.4 |
| 20260509112927 | 72 | 29 | 0.0 | 2.0 | 0.00 | 0.00 | 0.00 | 99 | 1010.0 |
| 20260509112425 | 73 | 0 | 0.0 | 2.0 | 0.00 | 0.00 | 0.00 | 99 | 1010.2 |
| 20260509111921 | 73 | 270 | 0.0 | 2.0 | 0.00 | 0.00 | 0.00 | 99 | 1010.4 |
| 20260509111419 | 73 | 180 | 0.0 | 0.0 | 0.00 | 0.00 | 0.00 | 99 | 1010.5 |
| 20260509110916 | 73 | 352 | 0.0 | 3.0 | 0.00 | 0.00 | 0.00 | 99 | 1010.3 |
| 20260509110412 | 73 | 20 | 3.0 | 3.0 | 0.00 | 0.00 | 0.00 | 99 | 1010.2 |
| 20260509105910 | 73 | 12 | 1.0 | 1.0 | 0.00 | 0.00 | 0.00 | 99 | 1009.9 |
| 20260509105408 | 73 | 270 | 0.0 | 2.0 | 0.00 | 0.00 | 0.00 | 99 | 1010.1 |
| 20260509104905 | 73 | 257 | 0.0 | 1.0 | 0.00 | 0.00 | 0.00 | 99 | 1010.3 |
| 20260509104402 | 73 | 15 | 2.0 | 2.0 | 0.00 | 0.00 | 0.00 | 99 | 1010.4 |
| 20260509103859 | 73 | 352 | 2.0 | 2.0 | 0.00 | 0.00 | 0.00 | 99 | 1010.4 |
| 20260509103356 | 73 | 209 | 0.0 | 0.0 | 0.00 | 0.00 | 0.00 | 99 | 1009.9 |
| 20260509102855 | 73 | 240 | 0.0 | 1.0 | 0.00 | 0.00 | 0.00 | 99 | 1009.7 |
| 20260509102352 | 73 | 0 | 0.0 | 1.0 | 0.00 | 0.00 | 0.00 | 99 | 1009.6 |
| 20260509101847 | 73 | 54 | 1.0 | 2.0 | 0.00 | 0.00 | 0.00 | 99 | 1009.7 |
| 20260509101344 | 73 | 32 | 2.0 | 2.0 | 0.00 | 0.00 | 0.00 | 99 | 1009.3 |
| 20260509100842 | 73 | 210 | 2.0 | 4.0 | 0.00 | 0.00 | 0.00 | 99 | 1009.7 |
| 20260509100339 | 73 | 216 | 0.0 | 3.0 | 0.00 | 0.00 | 0.00 | 99 | 1009.5 |
| 20260509095836 | 73 | 66 | 0.0 | 0.0 | 0.00 | 0.00 | 0.00 | 99 | 1009.7 |
| 20260509095333 | 73 | 54 | 1.0 | 4.0 | 0.00 | 0.00 | 0.00 | 99 | 1009.8 |
| 20260509094830 | 73 | 12 | 2.0 | 3.0 | 0.00 | 0.00 | 0.00 | 99 | 1009.8 |
| 20260509094326 | 73 | 26 | 1.0 | 3.0 | 0.00 | 0.00 | 0.00 | 99 | 1009.6 |
| 20260509093824 | 73 | 63 | 0.0 | 3.0 | 0.00 | 0.00 | 0.00 | 99 | 1009.6 |
| 20260509093321 | 73 | 26 | 0.0 | 1.0 | 0.00 | 0.00 | 0.00 | 99 | 1009.2 |
| 20260509092820 | 73 | 75 | 1.0 | 2.0 | 0.00 | 0.00 | 0.00 | 99 | 1009.4 |
| 20260509092317 | 73 | 81 | 0.0 | 1.0 | 0.00 | 0.00 | 0.00 | 99 | 1009.4 |
| 20260509091815 | 73 | 18 | 0.0 | 3.0 | 0.00 | 0.00 | 0.00 | 99 | 1009.0 |
| 20260509091311 | 73 | 60 | 0.0 | 2.0 | 0.00 | 0.00 | 0.00 | 99 | 1009.1 |
| 20260509090809 | 73 | 90 | 0.0 | 2.0 | 0.00 | 0.00 | 0.00 | 99 | 1009.0 |
| 20260509090306 | 73 | 8 | 0.0 | 2.0 | 0.00 | 0.00 | 0.00 | 99 | 1009.2 |
| 20260509085803 | 73 | 26 | 1.0 | 3.0 | 0.00 | 0.00 | 0.00 | 99 | 1009.2 |
| 20260509085301 | 73 | 29 | 2.0 | 3.0 | 0.00 | 0.00 | 0.00 | 99 | 1009.4 |
| 20260509084757 | 73 | 29 | 0.0 | 2.0 | 0.00 | 0.00 | 0.00 | 99 | 1009.6 |
| 20260509084254 | 73 | 65 | 2.0 | 2.0 | 0.00 | 0.00 | 0.00 | 99 | 1009.6 |
| 20260509083752 | 73 | 15 | 1.0 | 1.0 | 0.00 | 0.00 | 0.00 | 99 | 1009.2 |
| 20260509083248 | 73 | 90 | 0.0 | 1.0 | 0.00 | 0.00 | 0.00 | 99 | 1009.8 |
| 20260509082745 | 73 | 60 | 0.0 | 1.0 | 0.00 | 0.00 | 0.00 | 99 | 1009.5 |
| 20260509082241 | 73 | 90 | 0.0 | 2.0 | 0.00 | 0.00 | 0.00 | 99 | 1009.5 |
| 20260509081738 | 73 | 66 | 3.0 | 3.0 | 0.00 | 0.00 | 0.00 | 99 | 1009.5 |
| 20260509081236 | 73 | 156 | 0.0 | 0.0 | 0.00 | 0.00 | 0.00 | 99 | 1009.6 |
| 20260509080734 | 73 | 156 | 0.0 | 3.0 | 0.00 | 0.00 | 0.00 | 99 | 1009.5 |
| 20260509080231 | 73 | 219 | 3.0 | 3.0 | 0.00 | 0.00 | 0.00 | 99 | 1009.7 |
| 20260509075729 | 73 | 221 | 4.0 | 4.0 | 0.00 | 0.00 | 0.00 | 99 | 1009.6 |
| 20260509075227 | 73 | 180 | 0.0 | 3.0 | 0.00 | 0.00 | 0.00 | 99 | 1009.6 |
| 20260509074723 | 73 | 210 | 2.0 | 2.0 | 0.00 | 0.00 | 0.00 | 99 | 1009.6 |
| 20260509074221 | 73 | 261 | 0.0 | 2.0 | 0.00 | 0.00 | 0.00 | 99 | 1009.8 |
| 20260509073717 | 73 | 60 | 0.0 | 0.0 | 0.00 | 0.00 | 0.00 | 99 | 1010.0 |
| 20260509073214 | 73 | 74 | 1.0 | 1.0 | 0.00 | 0.00 | 0.00 | 99 | 1009.7 |
| 20260509072710 | 73 | 81 | 0.0 | 2.0 | 0.00 | 0.00 | 0.00 | 99 | 1010.0 |
| 20260509072207 | 73 | 73 | 0.0 | 2.0 | 0.00 | 0.00 | 0.00 | 99 | 1009.9 |
| 20260509071704 | 73 | 114 | 0.0 | 2.0 | 0.00 | 0.00 | 0.00 | 99 | 1009.7 |
| 20260509071201 | 73 | 246 | 0.0 | 0.0 | 0.00 | 0.00 | 0.00 | 99 | 1009.9 |
| 20260509070658 | 73 | 148 | 0.0 | 0.0 | 0.00 | 0.00 | 0.00 | 99 | 1010.0 |
| 20260509070154 | 73 | 203 | 0.0 | 3.0 | 0.00 | 0.00 | 0.00 | 99 | 1010.1 |
| 20260509065650 | 73 | 236 | 0.0 | 3.0 | 0.00 | 0.00 | 0.00 | 99 | 1009.9 |
| 20260509065147 | 73 | 212 | 2.0 | 4.0 | 0.00 | 0.00 | 0.00 | 99 | 1009.7 |
| 20260509064643 | 73 | 121 | 2.0 | 5.0 | 0.00 | 0.00 | 0.00 | 99 | 1009.3 |
| 20260509064141 | 73 | 90 | 0.0 | 2.0 | 0.00 | 0.00 | 0.00 | 99 | 1009.5 |
| 20260509063638 | 73 | 157 | 1.0 | 3.0 | 0.00 | 0.00 | 0.00 | 99 | 1009.5 |
| 20260509063134 | 73 | 254 | 0.0 | 3.0 | 0.00 | 0.00 | 0.00 | 99 | 1009.8 |
| 20260509062632 | 73 | 200 | 0.0 | 2.0 | 0.00 | 0.00 | 0.00 | 99 | 1009.7 |
| 20260509062129 | 73 | 166 | 0.0 | 4.0 | 0.00 | 0.00 | 0.00 | 99 | 1009.8 |
| 20260509061626 | 73 | 99 | 0.0 | 5.0 | 0.00 | 0.00 | 0.00 | 99 | 1009.5 |
| 20260509061123 | 73 | 74 | 0.0 | 2.0 | 0.00 | 0.00 | 0.00 | 99 | 1009.7 |
| 20260509060620 | 73 | 196 | 2.0 | 3.0 | 0.00 | 0.00 | 0.00 | 99 | 1009.4 |
| 20260509060110 | 73 | 147 | 3.0 | 6.0 | 0.00 | 0.00 | 0.00 | 99 | 1009.5 |
| 20260509055606 | 73 | 155 | 7.0 | 8.0 | 0.00 | 0.00 | 0.00 | 99 | 1009.5 |
| 20260509055102 | 73 | 147 | 3.0 | 5.0 | 0.00 | 0.00 | 0.00 | 99 | 1009.7 |
| 20260509054559 | 73 | 157 | 3.0 | 4.0 | 0.00 | 0.00 | 0.00 | 99 | 1009.6 |